Home > Weather > Waterloo > Past weeks

Flag for Canada Weather for the Past 2 Weeks in Waterloo, Ontario, Canada

Now
28 °F

Light snow. Mostly cloudy.


Feels Like: 23 °F
Forecast: 27 / 32 °F
Wind: 5 mph from Southwest

Location: Waterloo Well

Current Time: Feb 6, 2016 at 4:58:30 AM

Latest Report: Feb 6, 2016 at 4:00 AM


Visibility: 5 mi

Pressure: 30.20 "Hg

Humidity: 93%

Dew point: 27 °F

Location of WaterlooLocation

Historic Weather in Waterloo — Graph

°F

Waterloo Temperature Yesterday

Maximum temperature yesterday: 32 °F (at 12:00 PM)
Minimum temperature yesterday: 25 °F (at 8:00 AM)
Average temperature yesterday: 29 °F

High & Low Weather Summary for the Past Weeks

 TemperatureHumidityPressure
High57 °F (Feb 3, 1:52 PM)100% (Jan 24, 1:00 AM)30.37 "Hg (Jan 24, 1:00 AM)
Low0 °F (Jan 22, 8:00 AM)44% (Feb 3, 3:00 PM)29.46 "Hg (Jan 31, 11:00 PM)
Average29 °F83%29.93 "Hg
* Reported Jan 22 3:00 AM — Feb 6 3:57 AM, Waterloo, Weather by CustomWeather, © 2016

Note: Actual official high and low records may vary slightly from our data, if they occured in-between our weather recording intervals... More about our weather records

Advertising

Waterloo Weather History for the Previous 24 Hours

 ConditionsComfort  
Time TempWeatherWind HumidityBarometerVisibility
3:57 AM
Sat, Feb 6
28 °FLight snow. Overcast.5 mph93%30.20 "Hg5 mi
3:00 AM28 °FLight snow. Mostly cloudy.3 mph93%30.21 "Hg7 mi
2:00 AM28 °FLight snow. Mostly cloudy.5 mph86%30.22 "Hg9 mi
1:00 AM28 °FOvercast.8 mph86%30.23 "Hg9 mi
12:00 AM28 °FOvercast.8 mph86%30.25 "Hg9 mi
11:00 PM
Fri, Feb 5
28 °FOvercast.7 mph86%30.27 "Hg9 mi
10:00 PM28 °FMostly cloudy.8 mph80%30.29 "Hg9 mi
9:02 PM28 °FOvercast.8 mph80%30.31 "Hg9 mi
8:04 PM28 °FLight snow. Overcast.10 mph80%30.32 "Hg9 mi
7:00 PM30 °FLight snow. Overcast.14 mph75%30.32 "Hg9 mi
6:00 PM30 °FLight snow. Overcast.10 mph69%30.32 "Hg9 mi
5:00 PM30 °FMostly cloudy.10 mph69%30.31 "Hg9 mi
4:00 PM32 °FMostly cloudy.9 mph64%30.30 "Hg9 mi
3:00 PM32 °FOvercast.12 mph55%30.30 "Hg9 mi
2:00 PM32 °FPassing clouds.10 mph51%30.30 "Hg9 mi
1:00 PM32 °FPartly sunny.16 mph55%30.29 "Hg9 mi
12:00 PM32 °FScattered clouds.12 mph60%30.31 "Hg9 mi
11:00 AM30 °FBroken clouds.12 mph69%30.32 "Hg9 mi
10:01 AM28 °FPartly sunny.12 mph80%30.32 "Hg9 mi
10:00 AM28 °FScattered clouds.12 mph80%30.32 "Hg9 mi
9:00 AM27 °FSunny.10 mph80%30.32 "Hg9 mi
8:00 AM25 °FOvercast.7 mph86%30.31 "Hg9 mi
7:00 AM27 °FLight snow. Overcast.9 mph86%30.29 "Hg9 mi
6:00 AM27 °FLight snow. Mostly cloudy.10 mph80%30.27 "Hg9 mi
5:00 AM27 °FLight snow. Overcast.7 mph86%30.25 "Hg9 mi
4:00 AM27 °FLight snow. Mostly cloudy.5 mph86%30.24 "Hg9 mi
Weather by CustomWeather, © 2016

See weather overviewHow to use our weather pages